Regional Weather Roundup
Issued by NWS

Home | Current Version | Previous Version | Text Only | Print | Product List | Glossary Off
Versions: 1 2 3 4 5 6 7 8 9 10 11 12 13 14 15 16 17 18 19 20 21 22 23 24 25 26 27 28 29 30 31 32 33 34 35 36 37 38 39 40 41 42 43 44 45 46 47 48 49 50

000
ASUS43 KMPX 120301
RWRMN
WEATHER ROUNDUP FOR MINNESOTA
NATIONAL WEATHER SERVICE TWIN CITIES/CHANHASSEN MN
900 PM CST THU FEB 11 2016


NOTE: "FAIR" INDICATES FEW OR NO CLOUDS BELOW 12,000 FEET WITH NO
SIGNIFICANT WEATHER AND/OR OBSTRUCTIONS TO VISIBILITY. N/A MEANS
CURRENT SKY AND/OR WEATHER CONDITIONS ARE NOT AVAILABLE.

MNZ060>063-068>070-120400-
   Twin Cities Metro

CITY           SKY/WX    TMP DP  RH WIND       PRES   REMARKS
TWIN CITIES    FLURRIES  14   8  77 W5        30.24S WCI   6
ST PAUL        LGT SNOW  15   9  76 SW7       30.26S WCI   5
CRYSTAL        LGT SNOW  15   9  76 W5        30.23S WCI   8
LAKEVILLE      FLURRIES  12   7  79 CALM      30.23S
EDEN PRAIRIE   CLOUDY    15   7  70 CALM      30.23S
SOUTH ST PAUL  LGT SNOW  15  10  78 W5        30.25R WCI   8
LAKE ELMO      FLURRIES  16  10  79 SW6       30.23F WCI   7
$$
MNZ001>005-007-008-013>017-022>024-027-028-120400-
   Northwest Minnesota

CITY           SKY/WX    TMP DP  RH WIND       PRES   REMARKS
BEMIDJI        FLURRIES   7   3  82 W7        30.18S WCI  -4
HALLOCK        CLEAR      7   1  78 NW8       30.29R WCI  -6
ROSEAU         CLEAR      3   0  85 W7        30.23S WCI  -9
WARROAD        CLEAR      5   0  78 W7        30.21F WCI  -7
THIEF RVR FALL CLOUDY     9   9 100 NW14      30.26R WCI  -8
CROOKSTON      CLOUDY    10   5  79 N16       30.30R WCI  -7
FOSSTON        FLURRIES   7   3  85 W6        30.23R WCI  -3
DETROIT LAKES  CLOUDY    12   5  73 NW8       30.22S WCI   1
MOORHEAD       CLOUDY    10   7  85 NW8       30.28S WCI  -1
PARK RAPIDS    CLOUDY    11   1  64 NW12      30.18S WCI  -3
MAHNOMEN       MOCLDY     6   1  79 W6        30.23S WCI  -5
$$
MNZ006-009>011-018-025>026-120400-
   North Central Minnesota

CITY           SKY/WX    TMP DP  RH WIND       PRES   REMARKS
BAUDETTE       PTCLDY     5  -3  69 NW14      30.17R WCI -12
FLAG ISLAND    CLEAR      3  -2  78 NW14      30.18F WCI -15
INTL FALLS     CLEAR      6   0  76 W9        30.13S WCI  -8
WASKISH        MOCLDY     7   3  85 W8        30.18S WCI  -6
LONGVILLE      CLOUDY    10   1  67 NW7       30.17S WCI   0
GRAND RAPIDS   CLOUDY    10   0  61 NW13      30.15S WCI  -5
CRANE LAKE     CLOUDY     9  -2  61 W2        30.14S
ORR            CLOUDY     7   0  72 W6        30.09S WCI  -3
COOK           CLOUDY     9   1  72 W12       30.12R WCI  -6
WALKER         CLOUDY    10   1  67 NW10      30.18S WCI  -4
$$
MNZ012-019>021-037-120400-
   Northeast Minnesota

CITY           SKY/WX    TMP DP  RH WIND       PRES   REMARKS
DULUTH         CLOUDY    11  -2  56 W10       30.11S WCI  -3
ELY            CLOUDY     7  -2  66 W9        30.08S WCI  -7
HIBBING        CLOUDY     8  -3  61 W6        30.12S WCI  -2
EVELETH        CLOUDY    10  -2  56 W8        30.12S WCI  -1
DULUTH HARBOR  CLOUDY    16   1  53 SW10      30.19S WCI   3
TWO HARBORS    CLOUDY    14   0  52 W7        30.10S WCI   4
SILVER BAY     PTCLDY    10  -4  52 CALM      30.09R
GRAND MARAIS     N/A      5  -5  63 W5        30.10F WCI  -4
G MARAIS ARPRT CLEAR      1  -8  66 W13G21    29.97F WCI -16
$$
MNZ029>031-032-039>041-046>048-054>057-064-120400-
   West Central Minnesota

CITY           SKY/WX    TMP DP  RH WIND       PRES   REMARKS
FERGUS FALLS   CLOUDY    12   9  85 NW8       30.27F WCI   1
WHEATON        FLURRIES  16  12  86 NW8       30.28S WCI   5
MORRIS         FLURRIES  14  10  85 NW10      30.23R WCI   1
ALEXANDRIA     CLOUDY    12   8  84 NW6       30.20F WCI   3
ELBOW LAKE     LGT SNOW  13  10  90 W6        30.23F WCI   4
WADENA         CLOUDY    10   5  79 NW9       30.20S WCI  -2
GLENWOOD       LGT SNOW  12  10  92 NW6       30.21S WCI   3
APPLETON       FLURRIES  18  12  79 NW5       30.25R WCI  11
BENSON         FLURRIES  16  10  79 CALM      30.23S
ORTONVILLE     CLOUDY    16  10  79 NW6       30.24S WCI   7
MADISON        CLOUDY    16  14  93 N5        30.24S WCI   9
WILLMAR        LGT SNOW  18  14  86 NW5       30.23S WCI  11
$$
MNZ033>034-036-042>043-049>051-058-059-120400-
   Central Minnesota

CITY           SKY/WX    TMP DP  RH WIND       PRES   REMARKS
ST CLOUD       CLOUDY    12   9  87 W5        30.22S WCI   4
SAUK CENTRE    FLURRIES  12   9  88 W3        30.21S
PAYNESVILLE    FLURRIES  14  11  85 W3        30.22S
AITKIN         CLOUDY    16   0  48 W3        30.16S
PINE RIVER     CLOUDY    12   1  62 NW5       30.21S WCI   4
BRAINERD       CLOUDY    14   4  64 W6        30.18F WCI   5
STAPLES        CLOUDY    12   3  67 W8        30.19S WCI   1
LONG PRAIRIE   FLURRIES  12   9  85 SW3       30.20S
LITTLE FALLS   CLOUDY    14   9  79 W3        30.21S
LITCHFIELD     LGT SNOW  16  10  79 W3        30.22S
BUFFALO        LGT SNOW  14  10  86 CALM      30.24S
MAPLE LAKE     LGT SNOW  15  12  87 CALM      30.23S
$$
MNZ037-044-045-052-053-120400-
   East Central Minnesota

CITY           SKY/WX    TMP DP  RH WIND       PRES   REMARKS
PRINCETON      LGT SNOW  16  10  79 SW3       30.21S
MORA           CLOUDY    14   9  79 W5        30.22S WCI   6
CAMBRIDGE      FLURRIES  16   7  67 CALM      30.21S
RUSH CITY      CLOUDY    14   7  75 W6        30.22S WCI   5
MOOSE LAKE     CLOUDY    14   3  62 W7        30.16S WCI   4
HINCKLEY       CLOUDY    14   7  73 W6        30.19F WCI   5
CLOQUET        CLOUDY    12   0  57 W8        30.13S WCI   1
MCGREGOR       CLOUDY    14   3  62 W5        30.16F WCI   6
$$
MNZ071>073-080-081-089-090-097-098-120400-
   Southwest Minnesota

CITY           SKY/WX    TMP DP  RH WIND       PRES   REMARKS
MONTEVIDEO     CLOUDY    16  10  79 CALM      30.25S
GRANITE FALLS  CLOUDY    17  15  90 CALM      30.25R
CANBY          FLURRIES  21  18  89 NW6       30.24S WCI  13
MARSHALL       CLOUDY     7   4  87 W9        30.23R WCI  -7
REDWOOD FALLS  CLOUDY    17  12  80 W6        30.23S WCI   9
OLIVIA         CLOUDY    18  14  86 W5        30.22S WCI  11
PIPESTONE      CLOUDY    12   7  79 CALM      30.19R
WINDOM         CLOUDY     7   5  92 CALM      30.21R
WORTHINGTON    CLOUDY     9   5  85 W7        30.21R WCI  -3
JACKSON        CLOUDY    10   7  85 SW6       30.20R WCI   1
TRACY          CLOUDY    11   8  89 W5        30.22R WCI   3
SLAYTON        FLURRIES   9   9  97 W6        30.20S WCI   0
$$
MNZ065>067-074>077-082>085-091>093-120400-
   South Central Minnesota

CITY           SKY/WX    TMP DP  RH WIND       PRES   REMARKS
MANKATO        CLOUDY    14   7  73 SW9       30.23S WCI   2
NEW ULM        CLOUDY    12   9  85 CALM      30.23S
ST JAMES       CLOUDY    12  10  92 CALM      30.24S
FAIRMONT       CLOUDY    10   7  85 CALM      30.21R
GLENCOE        FLURRIES  16  11  80 SW3       30.23S
FARIBAULT      FLURRIES  14   7  73 SW5       30.23S WCI   6
OWATONNA       CLOUDY    14   7  73 SW7       30.22R WCI   4
WASECA         CLOUDY    14   9  79 SW8       30.24R WCI   3
ALBERT LEA     CLOUDY    12   5  73 CALM      30.21S
$$
MNZ078>079-086>088-094>096-120400-
   Southeast Minnesota

CITY           SKY/WX    TMP DP  RH WIND       PRES   REMARKS
ROCHESTER      CLOUDY    11   4  73 SW7       30.20F WCI   0
STANTON        FLURRIES  15   9  76 CALM      30.22F
DODGE CENTER   FLURRIES  12   5  73 SW7       30.19F WCI   2
WINONA         CLOUDY    16   5  62 W6        30.26F WCI   7
AUSTIN         CLOUDY    10   5  79 S5        30.20F WCI   2
PRESTON        CLOUDY    10   2  69 SW6       30.22F WCI   1
$$
ABBREVIATIONS USED IN REMARKS
   TC - TEMPERATURES IN CELSIUS
  WCI - WIND CHILL INDEX
   HX - HEAT INDEX
  VSB - VISIBILITY
$$




USA.gov is the U.S. government's official web portal to all federal, state and local government web resources and services.